Regional Weather Roundup
Issued by NWS

Home | Current Version | Previous Version | Text Only | Print | Product List | Glossary Off
Versions: 1 2 3 4 5 6 7 8 9 10 11 12 13 14 15 16 17 18 19 20 21 22 23 24 25 26 27 28 29 30 31 32 33 34 35 36 37 38 39 40 41 42 43 44 45 46 47 48 49 50

000
ASUS43 KLSX 290659
RWRMO

WEATHER SUMMARY FOR MISSOURI
NATIONAL WEATHER SERVICE SPRINGFIELD MO
200 AM CDT WED MAR 29 2017

NOTE: "FAIR" INDICATES FEW OR NO CLOUDS BELOW 12,000 FEET WITH NO
       SIGNIFICANT WEATHER AND/OR OBSTRUCTIONS TO VISIBILITY.
       CURRENT SKY AND/OR WEATHER CONDITIONS ARE NOT AVAILABLE FOR
       CHILLICOTHE AND FARMINGTON.

MOZ001>031-035>038-043-044-053-054-290800-
...NORTHERN AND WESTERN MISSOURI...

CITY           SKY/WX    TMP DP  RH WIND       PRES   REMARKS
KANSAS CTY INT CLOUDY    52  49  89 E20       29.94F
KANSAS C DTWN  CLOUDY    54  49  83 E18G29    29.91F
LEE`S SUMMIT   CLOUDY    53  50  89 E16G31    29.92F
ST JOSEPH      CLOUDY    52  48  86 NE10      29.99F
CHILLICOTHE      N/A     51  47  86 E9        30.01F
KIRKSVILLE     CLOUDY    49  46  90 E9        30.08F

$$
MOZ066>068-077>081-088>096-101>105-290800-
...SOUTHWEST MISSOURI...

CITY           SKY/WX    TMP DP  RH WIND       PRES   REMARKS
SPRINGFIELD    MOCLDY    56  49  77 SE20      29.88F
JOPLIN         CLOUDY    61  54  77 SE21G35   29.76F

$$
MOZ032>034-039>042-045>050-055>058-069>072-290800-
...CENTRAL MISSOURI...

CITY           SKY/WX    TMP DP  RH WIND       PRES   REMARKS
COLUMBIA       CLOUDY    52  49  89 E14       30.02F
JEFFERSON CITY CLOUDY    56  48  74 E13       30.02F
ROLLA          CLOUDY    52  48  86 E14       30.00F
SEDALIA        CLOUDY    54  49  83 E22       29.97S
WARRENSBURG    CLOUDY    52  46  82 E15G25    29.95F
OSAGE BEACH    CLOUDY    53  48  83 E9        29.98

$$
MOZ051-052-059>065-290800-
...EAST CENTRAL MISSOURI...

CITY           SKY/WX    TMP DP  RH WIND       PRES   REMARKS
ST LOUIS INTL  CLOUDY    54  46  74 E12       30.09S
SPIRIT OF STL  CLOUDY    53  48  83 NE7       30.08S
ST CHARLES     CLOUDY    51  46  83 E13       30.09R

$$
MOZ072>076-082>087-097>100-106>115-290800-
...SOUTH CENTRAL AND SOUTHEAST MISSOURI...

CITY           SKY/WX    TMP DP  RH WIND       PRES   REMARKS
CAPE GIRARDEAU CLEAR     51  47  86 NE3       30.04S
FARMINGTON     CLOUDY    52  48  86 CALM      30.07R
POPLAR BLUFF   CLEAR     53  50  89 NE7       30.01F
WEST PLAINS    CLOUDY    54  49  83 E13       29.98F

$$




USA.gov is the U.S. government's official web portal to all federal, state and local government web resources and services.